Wind_Speed
1 1 1 1 1 1 2 3 4 4 4 4 3 2 2 1 1 1 1 2 3 3 3 4 4 5 5 5 5 4 4 3 3 3 2 2 2 2 2 2 2 1 1
3 2 2 1 2 3 4 4 5 5 5 5 5 4 4 3 2 2 2 2 3 3 3 3 4 4 4 4 5 5 4 4 3 2 2 2 2 2 2 2 2 1 0
4 4 3 3 4 5 5 6 6 6 6 6 6 6 5 5 4 4 3 4 4 4 4 4 4 4 4 4 5 5 5 4 4 3 3 2 2 2 2 2 2 1 1
6 5 5 5 6 6 7 7 8 7 7 7 7 7 7 6 6 5 5 5 5 5 6 5 5 5 5 5 5 5 5 5 5 4 4 4 3 3 3 3 2 2 2
7 7 7 7 7 8 9 9 10 9 9 9 9 8 8 7 7 7 7 7 7 7 7 7 7 6 6 6 5 6 6 6 6 5 5 5 5 4 4 4 4 4 3
8 8 8 9 9 9 10 11 11 11 11 10 10 10 9 9 8 8 9 9 9 8 8 8 8 8 8 7 7 7 7 7 7 7 7 7 6 6 6 6 5 5 5
9 10 10 10 9 10 11 12 12 12 12 12 12 12 11 10 10 10 10 10 10 10 9 9 9 9 9 9 9 8 8 8 8 8 8 8 7 7 7 7 7 6 6
11 11 11 10 10 11 12 13 13 14 13 13 13 13 12 12 12 12 12 12 12 11 11 11 10 11 10 10 10 10 9 9 10 10 9 9 9 9 9 9 9 8 8
13 13 12 13 13 13 13 14 15 15 15 15 15 15 14 14 14 13 13 13 13 13 12 12 11 11 12 11 11 11 11 11 11 11 11 11 11 11 11 11 10 10 10
14 14 15 15 15 15 15 15 16 16 17 17 17 16 15 14 15 14 14 14 14 14 14 13 13 13 13 13 13 13 13 13 13 13 13 12 12 12 13 13 13 12 12
14 14 15 16 15 14 15 16 17 17 17 17 17 17 17 16 16 15 15 15 15 15 15 14 15 15 14 13 13 13 14 14 14 14 15 14 14 14 15 15 14 14 14
14 14 15 16 16 16 16 18 18 18 18 17 18 19 18 17 17 17 16 16 16 16 16 16 16 15 15 15 15 14 14 14 15 16 16 16 16 16 16 16 16 16 15
14 15 15 15 15 16 16 17 18 18 18 18 18 19 20 20 19 19 19 18 18 18 18 17 17 17 16 16 16 16 16 16 16 17 17 17 18 18 17 17 17 18 17
15 15 16 16 15 15 15 16 16 17 17 18 19 19 20 21 20 20 21 20 20 20 20 19 19 18 18 18 18 17 18 19 18 18 18 18 19 19 20 20 20 19 19
16 15 16 16 16 16 16 16 16 18 19 19 19 20 21 22 22 22 23 23 23 22 22 22 21 20 20 20 20 20 20 20 20 20 20 20 20 20 21 22 21 21 21
16 16 16 16 16 16 17 18 18 19 20 20 20 21 22 23 23 24 24 25 25 24 24 23 22 23 22 22 22 21 21 22 22 22 21 22 22 21 21 22 23 23 23
17 17 17 16 16 17 18 18 18 19 21 22 21 22 22 23 24 24 24 25 26 25 25 24 24 23 23 23 23 23 23 23 23 23 24 24 23 23 23 23 24 25 25
18 18 18 17 16 17 18 19 19 20 21 22 22 22 23 23 24 25 25 25 26 26 26 26 25 24 24 25 25 25 25 25 25 26 25 25 25 25 25 25 25 26 26
17 17 18 17 16 16 17 19 19 20 21 22 23 22 23 24 24 25 25 25 25 26 26 26 26 26 26 26 26 27 27 26 27 27 27 26 27 27 26 26 27 27 28
17 17 17 17 17 18 18 18 20 21 23 23 23 23 24 25 25 26 26 26 26 27 27 27 27 27 27 27 28 28 28 28 28 29 29 29 29 28 28 28 28 28 29
16 16 16 17 18 19 19 20 21 22 23 24 24 25 26 26 26 27 27 27 26 27 27 28 28 28 28 28 29 29 30 30 30 30 30 30 30 30 30 30 30 30 30
17 17 18 18 18 19 20 21 22 22 23 24 25 25 26 26 27 28 28 28 28 28 29 29 29 29 29 29 30 30 30 31 31 30 31 31 31 31 31 31 31 31 31
19 19 19 19 19 19 20 22 23 24 24 25 26 26 26 27 28 29 29 30 30 30 31 31 32 31 31 31 31 31 30 31 31 31 31 32 32 32 32 32 32 32 32
20 20 20 21 21 21 21 23 24 24 24 25 27 27 28 28 29 30 31 31 32 32 32 32 31 31 31 31 32 31 31 31 31 31 31 32 32 32 32 32 32 33 33
22 22 21 22 23 22 22 23 24 25 26 27 28 28 29 30 30 31 32 33 33 33 33 32 31 32 32 31 31 31 32 32 32 31 31 32 32 32 32 32 32 32 32
22 22 22 23 24 24 24 24 24 25 26 27 28 29 30 31 32 32 33 33 33 33 33 33 33 33 32 32 32 32 32 32 32 32 32 32 32 32 31 31 31 31 31
Wind_Direction
208 177 128 156 199 250 256 247 243 238 241 239 235 232 244 262 298 356 16 22 18 11 13 14 13 10 7 3 0 1 356 346 343 343 348 353 360 6 9 16 15 25 37
252 243 215 209 242 256 261 258 253 248 244 244 246 250 257 264 273 287 312 323 335 335 335 340 344 346 346 345 345 347 342 332 326 324 319 322 327 333 337 347 353 336 294
266 256 247 247 259 263 262 261 258 254 251 249 250 254 259 263 267 274 285 297 306 317 311 305 314 318 324 328 328 329 328 320 316 309 304 297 299 305 307 306 310 283 250
280 271 263 261 265 268 265 259 257 257 258 254 254 257 260 264 267 273 280 286 291 300 302 291 296 299 305 310 314 314 314 308 302 294 292 291 288 283 281 279 279 269 250
285 279 270 266 267 269 266 260 258 256 256 256 256 255 259 264 270 273 278 280 282 284 289 286 289 289 291 294 299 303 303 301 298 289 282 281 278 267 264 263 265 252 242
290 284 279 271 268 267 266 262 257 253 253 254 254 254 256 259 263 269 273 275 275 276 278 278 283 286 286 285 285 288 290 291 289 282 275 272 268 259 256 256 255 245 234
292 285 281 278 271 269 267 263 257 252 252 254 254 254 256 255 258 263 267 269 269 270 272 272 277 282 282 280 279 279 280 280 278 275 272 269 264 260 254 253 247 242 235
293 289 280 278 273 270 270 267 260 256 254 256 256 256 255 256 259 260 261 264 266 266 267 269 272 276 280 278 275 273 273 275 274 272 273 267 262 260 258 254 247 242 240
290 286 281 277 271 267 266 263 262 257 256 256 257 257 256 257 259 259 261 262 263 265 266 268 270 273 274 276 275 271 269 271 272 271 270 267 262 262 260 256 248 243 240
289 286 281 276 272 268 267 264 260 256 256 256 254 255 257 259 259 259 261 262 263 264 266 268 269 271 273 272 273 272 268 267 267 267 267 266 264 262 261 258 252 245 240
290 290 281 269 265 262 263 261 254 257 256 255 255 255 257 258 258 261 262 262 263 264 266 268 270 270 272 272 272 273 271 267 266 267 267 264 264 263 260 260 258 250 243
287 288 282 268 261 260 264 258 254 255 256 256 257 255 257 258 259 262 263 263 264 266 265 266 267 269 270 271 271 271 271 268 265 267 267 264 262 263 261 260 260 255 249
281 282 279 275 267 264 264 258 255 255 254 255 258 257 258 260 261 263 264 264 264 265 266 266 265 267 269 270 270 270 270 268 269 268 269 266 263 262 263 264 261 256 254
280 280 280 274 268 267 266 261 257 257 258 260 259 259 260 260 261 263 263 264 264 265 265 265 265 264 267 268 268 269 268 269 269 268 268 267 264 262 263 264 265 260 258
283 280 278 276 275 271 266 258 259 263 262 263 263 261 262 261 262 263 263 265 266 266 265 265 265 264 266 267 267 267 268 271 269 269 267 268 266 263 264 264 264 262 260
276 274 276 276 276 272 268 263 261 263 263 264 264 264 263 262 263 265 265 265 266 266 266 267 267 266 266 266 265 266 268 270 269 269 268 266 265 265 265 264 262 262 259
276 274 275 273 273 270 267 263 263 263 263 263 263 264 265 263 262 265 266 266 267 267 268 267 267 268 267 266 265 264 265 266 266 268 266 264 263 263 264 264 262 259 259
276 275 273 273 271 272 266 263 263 263 262 261 262 264 266 265 263 265 266 267 267 267 267 267 266 265 265 266 265 265 264 264 264 265 264 263 262 262 264 263 262 261 260
276 275 272 271 272 276 270 264 264 264 264 264 263 265 266 266 265 265 266 267 267 267 267 266 267 265 265 265 264 265 265 265 265 264 263 263 263 262 263 263 262 261 259
278 274 271 273 273 274 272 269 268 268 266 265 265 266 265 265 265 266 267 268 268 267 267 266 267 266 265 265 265 265 266 265 265 264 263 262 261 262 263 263 262 260 259
281 278 277 278 275 275 274 272 271 269 268 266 266 266 266 265 265 266 267 268 269 268 268 267 267 266 265 266 267 267 267 267 267 265 264 262 260 261 262 262 261 261 260
279 280 281 280 277 276 277 276 274 272 270 269 268 266 266 267 267 267 267 268 269 269 269 267 267 265 265 265 266 266 267 267 267 267 265 263 262 262 261 261 260 260 260
276 278 281 280 279 278 278 278 278 275 272 269 268 269 268 268 269 269 268 269 269 269 270 270 268 268 268 267 266 265 267 266 266 266 266 265 263 262 262 261 260 260 261
277 278 279 280 280 280 280 280 278 276 274 274 272 272 271 271 271 271 270 269 269 270 270 269 267 267 268 267 266 266 267 266 266 266 265 265 265 264 263 262 261 261 261
279 281 279 282 282 281 281 281 278 276 275 274 273 274 275 275 273 273 272 272 271 270 270 269 267 266 266 266 265 265 266 265 265 265 264 263 264 264 263 263 262 261 262
282 283 281 283 285 285 283 281 279 278 277 275 275 276 276 276 275 274 274 272 272 271 270 269 268 267 266 266 266 265 265 264 265 264 263 261 262 263 262 261 261 261 262
Height
5918 5917 5917 5918 5918 5918 5918 5918 5918 5918 5918 5918 5918 5918 5917 5917 5917 5917 5917 5917 5916 5916 5916 5916 5916 5915 5915 5915 5914 5914 5913 5913 5912 5912 5912 5911 5911 5911 5910 5910 5909 5909 5909
5916 5916 5916 5917 5917 5917 5917 5917 5917 5917 5917 5917 5917 5917 5916 5916 5916 5916 5916 5916 5916 5915 5915 5915 5915 5915 5914 5914 5914 5913 5913 5912 5912 5912 5911 5911 5911 5910 5910 5910 5909 5909 5908
5915 5914 5915 5915 5915 5916 5916 5916 5916 5915 5915 5915 5915 5915 5915 5915 5915 5915 5915 5915 5914 5914 5914 5914 5914 5914 5913 5913 5913 5912 5912 5912 5911 5911 5911 5910 5910 5910 5910 5909 5909 5909 5908
5913 5913 5913 5913 5914 5914 5914 5914 5914 5914 5914 5914 5914 5914 5914 5914 5914 5914 5914 5914 5913 5913 5913 5913 5912 5912 5912 5912 5911 5911 5911 5911 5910 5910 5910 5909 5909 5909 5909 5909 5909 5908 5908
5911 5911 5911 5911 5911 5912 5912 5912 5912 5912 5912 5912 5912 5912 5912 5912 5912 5912 5912 5912 5912 5911 5911 5911 5911 5911 5911 5910 5910 5910 5909 5909 5909 5909 5908 5908 5908 5908 5908 5908 5908 5908 5908
5909 5908 5909 5908 5909 5909 5909 5909 5909 5909 5909 5909 5909 5910 5910 5910 5910 5910 5910 5910 5910 5910 5910 5910 5910 5909 5909 5909 5908 5908 5908 5908 5908 5907 5907 5907 5907 5907 5907 5907 5907 5907 5907
5906 5906 5906 5906 5906 5906 5906 5906 5907 5907 5907 5907 5907 5907 5907 5907 5908 5908 5908 5908 5908 5908 5908 5908 5908 5907 5907 5907 5907 5907 5906 5906 5906 5906 5905 5905 5905 5905 5905 5906 5906 5906 5906
5904 5904 5903 5903 5903 5903 5903 5903 5904 5904 5904 5904 5904 5905 5905 5905 5905 5905 5905 5905 5905 5905 5905 5905 5905 5905 5905 5905 5905 5905 5904 5904 5904 5904 5903 5904 5904 5904 5904 5904 5904 5904 5904
5901 5901 5901 5900 5900 5900 5899 5900 5900 5900 5900 5901 5901 5901 5902 5902 5902 5902 5902 5902 5902 5903 5903 5903 5903 5903 5902 5902 5902 5902 5902 5902 5902 5902 5901 5901 5901 5902 5902 5902 5902 5902 5902
5898 5898 5897 5897 5897 5896 5896 5896 5896 5897 5897 5897 5898 5898 5898 5899 5898 5899 5899 5899 5899 5899 5900 5900 5900 5900 5899 5899 5899 5899 5899 5899 5899 5899 5899 5899 5899 5899 5900 5899 5899 5900 5900
5895 5894 5893 5893 5892 5892 5892 5892 5892 5893 5893 5893 5894 5895 5895 5895 5895 5895 5896 5895 5896 5896 5896 5896 5897 5896 5896 5896 5896 5895 5896 5896 5896 5896 5896 5896 5896 5896 5896 5896 5896 5897 5897
5892 5891 5890 5889 5888 5888 5888 5888 5888 5889 5889 5889 5890 5890 5891 5891 5891 5891 5892 5891 5892 5892 5892 5893 5893 5893 5892 5892 5892 5892 5892 5892 5892 5892 5893 5893 5893 5893 5893 5893 5893 5893 5894
5888 5888 5886 5886 5885 5885 5884 5884 5884 5884 5884 5885 5886 5886 5887 5887 5887 5887 5888 5888 5888 5888 5888 5889 5888 5888 5888 5889 5889 5888 5889 5889 5888 5888 5889 5889 5889 5889 5889 5889 5889 5890 5890
5885 5884 5884 5883 5882 5881 5881 5880 5880 5881 5881 5881 5882 5882 5882 5883 5883 5883 5884 5884 5884 5884 5884 5884 5884 5884 5884 5884 5884 5884 5884 5884 5884 5884 5885 5885 5885 5885 5885 5885 5885 5886 5886
5881 5881 5880 5879 5879 5878 5877 5877 5877 5877 5877 5877 5878 5878 5878 5878 5879 5879 5879 5879 5879 5879 5879 5879 5879 5879 5880 5880 5880 5880 5880 5880 5880 5880 5880 5881 5881 5881 5881 5881 5881 5881 5881
5878 5877 5876 5875 5875 5874 5873 5873 5873 5873 5873 5873 5874 5874 5874 5874 5874 5874 5874 5874 5874 5874 5874 5874 5874 5874 5874 5874 5875 5875 5875 5875 5875 5875 5875 5876 5876 5876 5876 5876 5876 5876 5876
5874 5873 5872 5871 5870 5870 5870 5869 5869 5869 5869 5869 5869 5869 5869 5869 5869 5869 5869 5869 5869 5869 5869 5869 5869 5868 5869 5869 5869 5869 5869 5870 5870 5870 5870 5870 5870 5871 5871 5871 5871 5871 5871
5870 5869 5868 5867 5866 5866 5865 5865 5865 5864 5864 5865 5864 5864 5864 5864 5863 5864 5864 5864 5863 5863 5863 5863 5863 5863 5863 5863 5863 5863 5864 5864 5864 5864 5864 5864 5864 5865 5865 5866 5866 5866 5867
5866 5865 5864 5864 5863 5862 5861 5860 5860 5860 5860 5859 5859 5859 5859 5859 5859 5858 5858 5858 5857 5857 5857 5857 5857 5857 5857 5857 5857 5857 5858 5858 5858 5858 5859 5859 5859 5859 5859 5860 5860 5861 5861
5863 5862 5861 5860 5859 5858 5857 5856 5855 5855 5855 5854 5854 5854 5854 5854 5853 5853 5853 5852 5852 5851 5851 5851 5851 5851 5851 5851 5851 5851 5852 5852 5852 5852 5852 5852 5853 5853 5853 5854 5854 5854 5855
5859 5858 5857 5855 5854 5853 5852 5851 5850 5850 5850 5849 5849 5849 5848 5848 5847 5847 5847 5846 5846 5845 5845 5844 5844 5844 5844 5844 5845 5845 5845 5845 5845 5845 5845 5846 5846 5846 5847 5847 5847 5848 5849
5855 5854 5852 5851 5850 5849 5848 5846 5845 5844 5844 5843 5843 5842 5842 5841 5841 5840 5840 5839 5839 5839 5838 5837 5837 5837 5837 5837 5838 5838 5838 5839 5838 5838 5838 5838 5839 5839 5840 5840 5841 5841 5842
5851 5850 5848 5847 5846 5844 5843 5841 5840 5839 5838 5837 5837 5836 5835 5834 5834 5833 5833 5832 5832 5831 5831 5830 5830 5830 5830 5830 5830 5830 5831 5831 5831 5831 5831 5831 5831 5832 5832 5833 5834 5834 5835
5846 5845 5843 5842 5841 5839 5837 5836 5834 5833 5831 5831 5829 5829 5828 5827 5826 5826 5825 5824 5824 5823 5823 5822 5822 5822 5822 5822 5822 5822 5823 5823 5823 5823 5824 5824 5824 5824 5825 5826 5826 5827 5828
5841 5840 5839 5837 5835 5833 5831 5830 5828 5826 5825 5824 5822 5821 5820 5819 5818 5817 5817 5816 5815 5815 5815 5814 5814 5814 5814 5814 5814 5814 5814 5815 5815 5816 5816 5817 5817 5817 5817 5818 5819 5820 5820
5836 5835 5834 5832 5830 5827 5825 5824 5822 5820 5818 5816 5815 5813 5812 5811 5809 5809 5808 5807 5806 5806 5806 5806 5806 5806 5806 5806 5806 5806 5807 5807 5807 5808 5809 5809 5809 5810 5810 5811 5812 5812 5813